Weather History for KHBR - April, 2013

Change the Weather History Date:

Friday, April 26, 2013

  Actual Average Record
Temperature  
Mean Temperature 65 °F -  
Max Temperature 75 °F 71 °F 91 °F (2014)
Min Temperature 55 °F 47 °F 37 °F (2005)
Growing Degree Days 15 (Base 50)    
Moisture  
Dew Point 50 °F    
Average Humidity 67    
Maximum Humidity 93    
Minimum Humidity 46    
Precipitation  
Precipitation 0.01 in - - ()
Sea Level Pressure  
Sea Level Pressure 30.02 in    
Wind  
Wind Speed 16 mph (SSE)    
Max Wind Speed 24 mph    
Max Gust Speed 33 mph    
Visibility 10 miles    
Events Rain , Thunderstorm    
Averages and records for this station are not official NWS values.
T = Trace of Precipitation, MM = Missing Value Source: NWS Daily Summary

Daily Weather History Graph

Daily Weather History Graph

Search for Another Location

Airport or City:

Trip Planner

Search our weather history database for the weather conditions in past years. The results will help you decide how hot, cold, wet, or windy it might be!

Date:

Astronomy

Apr. 26, 2013 Rise Set
Actual Time 6:50 AM CDT 8:17 PM CDT
Civil Twilight 6:23 AM CDT 8:44 PM CDT
Nautical Twilight 5:51 AM CDT 9:16 PM CDT
Astronomical Twilight 5:18 AM CDT 9:50 PM CDT
Moon 9:39 PM CDT (4/26) 7:21 AM CDT (4/26)
Length of Visible Light 14h 20m
Length of Day
13h 27m
Full, 99% of the Moon is Illuminated
Apr 26
Full
May 2
Last Quarter
May 9
New
May 17
First Quarter
May 24
Full

Hourly Weather History & Observations

Time (CDT) Temp. Dew Point Humidity Pressure Visibility Wind Dir Wind Speed Gust Speed Precip Events Conditions
12:53 AM 60.1 °F 39.0 °F 46% 30.06 in 10.0 mi SSE 18.4 mph 26.5 mph N/A   Mostly Cloudy
1:53 AM 60.8 °F 41.0 °F 48% 30.08 in 10.0 mi SSE 18.4 mph 24.2 mph N/A   Overcast
2:53 AM 61.0 °F 42.1 °F 50% 30.03 in 10.0 mi SSE 16.1 mph - N/A   Overcast
3:53 AM 60.1 °F 43.0 °F 53% 30.03 in 10.0 mi South 13.8 mph 21.9 mph N/A   Overcast
4:17 AM 60.8 °F 42.8 °F 52% 30.02 in 10.0 mi SE 11.5 mph - N/A   Overcast
4:53 AM 60.1 °F 44.1 °F 55% 30.01 in 10.0 mi South 12.7 mph 18.4 mph N/A   Overcast
5:48 AM 59.0 °F 44.6 °F 59% 30.04 in 10.0 mi South 9.2 mph - N/A Thunderstorm Overcast
5:53 AM 59.0 °F 45.0 °F 60% 30.02 in 10.0 mi South 11.5 mph 17.3 mph N/A Thunderstorm Overcast
6:06 AM 57.2 °F 44.6 °F 63% 30.04 in 10.0 mi South 12.7 mph - N/A   Overcast
6:14 AM 57.2 °F 44.6 °F 63% 30.04 in 10.0 mi South 12.7 mph 18.4 mph N/A   Overcast
6:21 AM 57.2 °F 44.6 °F 63% 30.05 in 10.0 mi South 12.7 mph - N/A   Overcast
6:27 AM 57.2 °F 44.6 °F 63% 30.04 in 10.0 mi South 16.1 mph 20.7 mph N/A Thunderstorm Thunderstorm
6:53 AM 57.0 °F 46.0 °F 67% 30.02 in 10.0 mi South 16.1 mph - 0.01 in Thunderstorm Overcast
7:00 AM 57.2 °F 46.4 °F 67% 30.06 in 10.0 mi South 16.1 mph - N/A   Overcast
7:07 AM 55.4 °F 46.4 °F 72% 30.07 in 10.0 mi South 11.5 mph 21.9 mph 0.00 in Rain , Thunderstorm Light Rain
7:22 AM 57.2 °F 46.4 °F 67% 30.07 in 10.0 mi SSE 5.8 mph - 0.00 in   Overcast
7:42 AM 57.2 °F 46.4 °F 67% 30.08 in 10.0 mi South 9.2 mph - 0.00 in   Overcast
7:53 AM 55.9 °F 46.9 °F 72% 30.07 in 10.0 mi South 8.1 mph - 0.00 in   Overcast
8:50 AM 57.2 °F 48.2 °F 72% 30.09 in 10.0 mi South 10.4 mph - N/A   Overcast
8:53 AM 57.0 °F 48.0 °F 72% 30.07 in 10.0 mi South 11.5 mph - N/A   Overcast
9:03 AM 57.2 °F 48.2 °F 72% 30.09 in 10.0 mi South 13.8 mph 21.9 mph N/A   Overcast
9:50 AM 57.2 °F 51.8 °F 82% 30.08 in 10.0 mi South 17.3 mph 25.3 mph N/A   Overcast
9:53 AM 57.9 °F 51.1 °F 78% 30.05 in 10.0 mi South 17.3 mph 25.3 mph N/A   Overcast
10:45 AM 60.8 °F 51.8 °F 72% 30.06 in 10.0 mi South 24.2 mph 28.8 mph N/A   Overcast
10:53 AM 60.1 °F 51.1 °F 72% 30.04 in 10.0 mi South 21.9 mph - N/A   Overcast
11:29 AM 62.6 °F 51.8 °F 68% 30.06 in 10.0 mi South 21.9 mph 29.9 mph N/A   Overcast
11:53 AM 63.0 °F 53.1 °F 70% 30.03 in 10.0 mi South 20.7 mph 31.1 mph N/A   Overcast
12:35 PM 62.6 °F 53.6 °F 72% 30.04 in 10.0 mi South 18.4 mph 27.6 mph N/A   Overcast
12:53 PM 66.0 °F 55.0 °F 68% 30.00 in 10.0 mi South 23.0 mph 27.6 mph N/A   Mostly Cloudy
1:04 PM 66.2 °F 55.4 °F 68% 30.02 in 10.0 mi South 21.9 mph 32.2 mph N/A   Scattered Clouds
1:33 PM 66.2 °F 53.6 °F 64% 30.02 in 10.0 mi South 19.6 mph 27.6 mph N/A   Mostly Cloudy
1:53 PM 66.0 °F 54.0 °F 65% 29.98 in 10.0 mi South 20.7 mph 28.8 mph N/A   Overcast
2:05 PM 69.8 °F 55.4 °F 60% 30.00 in 10.0 mi South 20.7 mph 29.9 mph N/A   Scattered Clouds
2:53 PM 73.0 °F 55.9 °F 55% 29.95 in 10.0 mi SSW 16.1 mph 24.2 mph N/A   Scattered Clouds
3:53 PM 75.0 °F 55.9 °F 51% 29.92 in 10.0 mi South 16.1 mph 24.2 mph N/A   Partly Cloudy
4:53 PM 75.9 °F 57.9 °F 54% 29.90 in 10.0 mi South 13.8 mph 24.2 mph N/A   Clear
5:53 PM 73.9 °F 60.1 °F 62% 29.88 in 10.0 mi SE 18.4 mph 26.5 mph N/A   Clear
6:53 PM 72.0 °F 60.1 °F 66% 29.86 in 10.0 mi SSE 17.3 mph 24.2 mph N/A   Clear
7:53 PM 70.0 °F 61.0 °F 73% 29.86 in 10.0 mi SE 13.8 mph - N/A   Clear
8:36 PM 66.2 °F 59.0 °F 78% 29.97 in 10.0 mi North 19.6 mph 33.4 mph N/A   Mostly Cloudy
8:53 PM 64.0 °F 55.9 °F 75% 29.96 in 10.0 mi North 15.0 mph 27.6 mph N/A   Mostly Cloudy
9:05 PM 64.4 °F 55.4 °F 73% 29.99 in 10.0 mi NNE 18.4 mph 26.5 mph N/A   Mostly Cloudy
9:53 PM 57.9 °F 53.1 °F 84% 30.00 in 10.0 mi NE 12.7 mph 24.2 mph N/A   Partly Cloudy
10:53 PM 57.9 °F 54.0 °F 87% 30.01 in 10.0 mi NE 10.4 mph - N/A   Mostly Cloudy
11:53 PM 57.0 °F 55.0 °F 93% 30.02 in 10.0 mi NNE 12.7 mph - N/A   Mostly Cloudy